Time,TemperatureF,DewpointF,PressureIn,WindDirection,WindDirectionDegrees,WindSpeedMPH,WindSpeedGustMPH,Humidity,HourlyPrecipIn,Conditions,Clouds,dailyrainin,SoftwareType,DateUTC
2013-04-30 00:08:00,54.7,49.3,30.14,SE,134,3.0,6.0,82,0.00,CLR,,0.00,WeatherDisplay:10.37,2013-04-30 04:08:00,
2013-04-30 00:18:00,54.7,49.3,30.14,SSE,154,0.0,6.0,82,0.00,CLR,,0.00,WeatherDisplay:10.37,2013-04-30 04:18:00,
2013-04-30 00:28:00,54.7,49.3,30.14,SE,127,0.0,6.0,82,0.00,CLR,,0.00,WeatherDisplay:10.37,2013-04-30 04:28:00,
2013-04-30 00:38:00,54.7,49.3,30.14,South,185,0.0,6.0,82,0.00,CLR,,0.00,WeatherDisplay:10.37,2013-04-30 04:38:00,
2013-04-30 00:48:00,54.7,49.6,30.14,SE,130,3.0,6.0,83,0.00,CLR,,0.00,WeatherDisplay:10.37,2013-04-30 04:48:00,
2013-04-30 00:58:00,54.7,49.6,30.14,SE,124,2.0,5.0,83,0.00,CLR,,0.00,WeatherDisplay:10.37,2013-04-30 04:58:00,
2013-04-30 01:08:00,54.7,49.6,30.14,SSE,152,0.0,0.0,83,0.00,CLR,,0.00,WeatherDisplay:10.37,2013-04-30 05:08:00,
2013-04-30 01:18:00,54.7,49.6,30.14,SE,128,0.0,4.0,83,0.00,CLR,,0.00,WeatherDisplay:10.37,2013-04-30 05:18:00,
2013-04-30 01:28:00,54.7,49.6,30.14,ESE,113,0.0,3.0,83,0.00,CLR,,0.00,WeatherDisplay:10.37,2013-04-30 05:28:00,
2013-04-30 01:38:00,54.7,49.6,30.14,East,94,0.0,0.0,83,0.00,CLR,,0.00,WeatherDisplay:10.37,2013-04-30 05:38:00,
2013-04-30 01:48:00,54.7,49.6,30.14,SSE,147,0.0,0.0,83,0.00,CLR,,0.00,WeatherDisplay:10.37,2013-04-30 05:48:00,
2013-04-30 01:58:00,54.7,49.6,30.14,SE,131,0.0,0.0,83,0.00,CLR,,0.00,WeatherDisplay:10.37,2013-04-30 05:58:00,
2013-04-30 02:08:00,54.7,49.6,30.14,NE,52,0.0,0.0,83,0.00,CLR,,0.00,WeatherDisplay:10.37,2013-04-30 06:08:00,
2013-04-30 02:18:00,54.7,49.6,30.14,ENE,58,0.0,0.0,83,0.00,CLR,,0.00,WeatherDisplay:10.37,2013-04-30 06:18:00,
2013-04-30 02:28:00,54.7,49.6,30.14,ENE,62,0.0,0.0,83,0.00,CLR,,0.00,WeatherDisplay:10.37,2013-04-30 06:28:00,
2013-04-30 02:38:00,54.7,49.6,30.14,NE,49,0.0,0.0,83,0.00,CLR,,0.00,WeatherDisplay:10.37,2013-04-30 06:38:00,
2013-04-30 02:48:00,54.7,49.6,30.14,NNW,338,0.0,3.0,83,0.00,CLR,,0.00,WeatherDisplay:10.37,2013-04-30 06:48:00,
2013-04-30 02:58:00,54.7,49.6,30.14,WNW,289,0.0,0.0,83,0.00,CLR,,0.00,WeatherDisplay:10.37,2013-04-30 06:58:00,
2013-04-30 03:08:00,54.7,49.6,30.11,East,95,0.0,4.0,83,0.00,CLR,,0.00,WeatherDisplay:10.37,2013-04-30 07:08:00,
2013-04-30 03:18:00,54.9,50.1,30.11,ENE,59,0.0,4.0,84,0.00,CLR,,0.00,WeatherDisplay:10.37,2013-04-30 07:18:00,
2013-04-30 03:28:00,54.9,50.1,30.14,East,99,0.0,5.0,84,0.00,CLR,,0.00,WeatherDisplay:10.37,2013-04-30 07:28:00,
2013-04-30 03:38:00,54.9,50.1,30.14,East,86,0.0,0.0,84,0.00,CLR,,0.00,WeatherDisplay:10.37,2013-04-30 07:38:00,
2013-04-30 03:48:00,54.9,50.1,30.14,East,86,0.0,0.0,84,0.00,CLR,,0.00,WeatherDisplay:10.37,2013-04-30 07:48:00,
2013-04-30 03:58:00,54.7,49.9,30.14,NE,34,1.0,5.0,84,0.00,CLR,,0.00,WeatherDisplay:10.37,2013-04-30 07:58:00,
2013-04-30 04:08:00,54.7,49.9,30.14,NE,54,0.0,6.0,84,0.00,CLR,,0.00,WeatherDisplay:10.37,2013-04-30 08:08:00,
2013-04-30 04:18:00,54.7,49.9,30.14,East,94,1.0,4.0,84,0.00,CLR,,0.00,WeatherDisplay:10.37,2013-04-30 08:18:00,
2013-04-30 04:28:00,54.7,49.9,30.14,ENE,75,0.0,3.0,84,0.00,CLR,,0.00,WeatherDisplay:10.37,2013-04-30 08:28:00,
2013-04-30 04:38:00,54.7,49.9,30.14,East,87,1.0,4.0,84,0.00,CLR,,0.00,WeatherDisplay:10.37,2013-04-30 08:38:00,
2013-04-30 04:48:00,54.7,49.9,30.14,East,85,0.0,0.0,84,0.00,CLR,,0.00,WeatherDisplay:10.37,2013-04-30 08:48:00,
2013-04-30 04:58:00,54.7,50.3,30.14,ENE,77,0.0,6.0,85,0.00,CLR,,0.00,WeatherDisplay:10.37,2013-04-30 08:58:00,
2013-04-30 05:08:00,54.7,50.3,30.14,East,86,0.0,3.0,85,0.05,RA,,0.05,WeatherDisplay:10.37,2013-04-30 09:08:00,
2013-04-30 05:18:00,54.7,50.3,30.14,ENE,65,0.0,4.0,85,0.00,CLR,,0.05,WeatherDisplay:10.37,2013-04-30 09:18:00,
2013-04-30 05:28:00,54.7,50.3,30.14,NE,39,0.0,5.0,85,0.00,CLR,,0.05,WeatherDisplay:10.37,2013-04-30 09:28:00,
2013-04-30 05:38:00,54.7,50.3,30.17,NNE,22,0.0,3.0,85,0.00,CLR,,0.05,WeatherDisplay:10.37,2013-04-30 09:38:00,
2013-04-30 05:48:00,54.9,50.4,30.17,SSE,148,0.0,2.0,85,0.00,CLR,,0.05,WeatherDisplay:10.37,2013-04-30 09:48:00,
2013-04-30 05:58:00,54.9,50.4,30.17,ENE,64,0.0,6.0,85,0.00,CLR,,0.05,WeatherDisplay:10.37,2013-04-30 09:58:00,
2013-04-30 06:08:00,54.9,50.4,30.17,East,81,2.0,6.0,85,0.00,CLR,,0.05,WeatherDisplay:10.37,2013-04-30 10:08:00,
2013-04-30 06:18:00,54.9,50.4,30.17,NE,37,1.0,7.0,85,0.00,CLR,,0.05,WeatherDisplay:10.37,2013-04-30 10:18:00,
2013-04-30 06:28:00,54.9,50.4,30.17,ENE,61,3.0,6.0,85,0.00,CLR,,0.05,WeatherDisplay:10.37,2013-04-30 10:28:00,
2013-04-30 06:38:00,54.9,50.4,30.17,ENE,57,0.0,6.0,85,0.00,CLR,,0.05,WeatherDisplay:10.37,2013-04-30 10:38:00,
2013-04-30 06:48:00,54.9,50.4,30.17,East,86,2.0,6.0,85,0.00,CLR,,0.05,WeatherDisplay:10.37,2013-04-30 10:48:00,
2013-04-30 06:58:00,55.0,50.6,30.17,South,186,0.0,4.0,85,0.00,CLR,,0.05,WeatherDisplay:10.37,2013-04-30 10:58:00,
2013-04-30 07:08:00,55.0,50.6,30.20,ENE,77,0.0,6.0,85,0.00,CLR,,0.05,WeatherDisplay:10.37,2013-04-30 11:08:00,
2013-04-30 07:18:00,55.0,50.6,30.20,NNE,13,1.0,6.0,85,0.00,CLR,,0.05,WeatherDisplay:10.37,2013-04-30 11:18:00,
2013-04-30 07:28:00,55.0,50.3,30.20,ENE,57,5.0,8.0,84,0.00,CLR,,0.05,WeatherDisplay:10.37,2013-04-30 11:28:00,
2013-04-30 07:38:00,55.2,50.5,30.20,NNE,32,0.0,6.0,84,0.00,CLR,,0.05,WeatherDisplay:10.37,2013-04-30 11:38:00,
2013-04-30 07:48:00,55.4,50.6,30.20,ESE,107,0.0,6.0,84,0.00,CLR,,0.05,WeatherDisplay:10.37,2013-04-30 11:48:00,
2013-04-30 07:58:00,55.6,50.8,30.20,NE,35,0.0,6.0,84,0.00,CLR,,0.05,WeatherDisplay:10.37,2013-04-30 11:58:00,
2013-04-30 08:08:00,55.6,50.9,30.20,ENE,64,3.0,6.0,84,0.00,CLR,,0.05,WeatherDisplay:10.37,2013-04-30 12:08:00,
2013-04-30 08:18:00,55.8,50.7,30.20,ENE,64,1.0,6.0,83,0.00,CLR,,0.05,WeatherDisplay:10.37,2013-04-30 12:18:00,
2013-04-30 08:28:00,55.9,50.9,30.20,ENE,59,5.0,6.0,83,0.00,CLR,,0.05,WeatherDisplay:10.37,2013-04-30 12:28:00,
2013-04-30 08:38:00,55.9,50.5,30.20,East,80,0.0,9.0,82,0.00,CLR,,0.05,WeatherDisplay:10.37,2013-04-30 12:38:00,
2013-04-30 08:48:00,56.1,50.7,30.20,East,86,3.0,6.0,82,0.00,CLR,,0.05,WeatherDisplay:10.37,2013-04-30 12:48:00,
2013-04-30 08:58:00,56.1,50.4,30.23,ENE,77,3.0,7.0,81,0.00,CLR,,0.05,WeatherDisplay:10.37,2013-04-30 12:58:00,
2013-04-30 09:08:00,56.3,50.2,30.23,East,81,0.0,6.0,80,0.00,CLR,,0.05,WeatherDisplay:10.37,2013-04-30 13:08:00,
2013-04-30 09:18:00,56.6,50.5,30.23,ESE,122,3.0,6.0,80,0.00,CLR,,0.05,WeatherDisplay:10.37,2013-04-30 13:18:00,
2013-04-30 09:28:00,56.7,50.2,30.23,ENE,73,0.0,5.0,79,0.00,CLR,,0.05,WeatherDisplay:10.37,2013-04-30 13:28:00,
2013-04-30 09:38:00,56.7,50.2,30.23,East,100,2.0,8.0,79,0.00,CLR,,0.05,WeatherDisplay:10.37,2013-04-30 13:38:00,
2013-04-30 09:48:00,56.7,49.9,30.23,ENE,74,2.0,8.0,78,0.00,CLR,,0.05,WeatherDisplay:10.37,2013-04-30 13:48:00,
2013-04-30 09:58:00,56.7,49.9,30.23,East,88,2.0,6.0,78,0.00,CLR,,0.05,WeatherDisplay:10.37,2013-04-30 13:58:00,
2013-04-30 10:08:00,57.0,50.2,30.23,East,96,3.0,8.0,78,0.00,CLR,,0.05,WeatherDisplay:10.37,2013-04-30 14:08:00,
2013-04-30 10:18:00,56.8,49.7,30.23,ENE,75,3.0,6.0,77,0.00,CLR,,0.05,WeatherDisplay:10.37,2013-04-30 14:18:00,
2013-04-30 10:28:00,56.8,50.1,30.23,East,95,1.0,9.0,78,0.00,CLR,,0.05,WeatherDisplay:10.37,2013-04-30 14:28:00,
2013-04-30 10:38:00,56.8,50.1,30.23,NE,51,3.0,6.0,78,0.00,CLR,,0.05,WeatherDisplay:10.37,2013-04-30 14:38:00,
2013-04-30 10:48:00,56.8,50.1,30.23,ENE,70,3.0,9.0,78,0.00,CLR,,0.05,WeatherDisplay:10.37,2013-04-30 14:48:00,
2013-04-30 10:58:00,56.8,49.7,30.23,East,87,3.0,8.0,77,0.00,CLR,,0.05,WeatherDisplay:10.37,2013-04-30 14:58:00,
2013-04-30 11:08:00,56.8,49.7,30.23,East,88,5.0,8.0,77,0.00,CLR,,0.05,WeatherDisplay:10.37,2013-04-30 15:08:00,
2013-04-30 11:18:00,57.0,49.9,30.23,ESE,112,2.0,9.0,77,0.00,CLR,,0.05,WeatherDisplay:10.37,2013-04-30 15:18:00,
2013-04-30 11:28:00,57.3,49.8,30.23,ESE,110,5.0,12.0,76,0.00,CLR,,0.05,WeatherDisplay:10.37,2013-04-30 15:28:00,
2013-04-30 11:38:00,57.2,49.7,30.23,ESE,103,5.0,6.0,76,0.00,CLR,,0.05,WeatherDisplay:10.37,2013-04-30 15:38:00,
2013-04-30 11:48:00,57.2,49.7,30.23,ESE,106,5.0,8.0,76,0.00,CLR,,0.05,WeatherDisplay:10.37,2013-04-30 15:48:00,
2013-04-30 11:58:00,57.2,50.1,30.23,ESE,115,3.0,8.0,77,0.00,CLR,,0.05,WeatherDisplay:10.37,2013-04-30 15:58:00,
2013-04-30 12:08:00,57.2,50.1,30.23,ESE,121,2.0,9.0,77,0.00,CLR,,0.05,WeatherDisplay:10.37,2013-04-30 16:08:00,
2013-04-30 12:18:00,57.4,50.2,30.23,ESE,119,5.0,8.0,77,0.00,CLR,,0.05,WeatherDisplay:10.37,2013-04-30 16:18:00,
2013-04-30 12:28:00,58.1,51.6,30.23,SE,137,1.0,8.0,79,0.00,CLR,,0.05,WeatherDisplay:10.37,2013-04-30 16:28:00,
2013-04-30 12:38:00,58.1,51.6,30.23,ESE,112,3.0,9.0,79,0.00,CLR,,0.05,WeatherDisplay:10.37,2013-04-30 16:38:00,
2013-04-30 12:48:00,58.3,52.1,30.23,East,100,6.0,9.0,80,0.00,CLR,,0.05,WeatherDisplay:10.37,2013-04-30 16:48:00,
2013-04-30 12:58:00,58.1,52.0,30.23,ESE,104,5.0,9.0,80,0.00,CLR,,0.05,WeatherDisplay:10.37,2013-04-30 16:58:00,
2013-04-30 13:08:00,57.9,51.4,30.23,SE,130,1.0,8.0,79,0.00,CLR,,0.05,WeatherDisplay:10.37,2013-04-30 17:08:00,
2013-04-30 13:18:00,57.9,51.4,30.23,ESE,112,3.0,8.0,79,0.00,CLR,,0.05,WeatherDisplay:10.37,2013-04-30 17:18:00,
2013-04-30 13:28:00,57.6,51.1,30.23,East,95,0.0,6.0,79,0.00,CLR,,0.05,WeatherDisplay:10.37,2013-04-30 17:28:00,
2013-04-30 13:38:00,57.7,51.3,30.23,ESE,113,6.0,8.0,79,0.00,CLR,,0.05,WeatherDisplay:10.37,2013-04-30 17:38:00,
2013-04-30 13:48:00,57.7,51.3,30.23,East,98,5.0,8.0,79,0.00,CLR,,0.05,WeatherDisplay:10.37,2013-04-30 17:48:00,
2013-04-30 13:58:00,57.9,51.8,30.23,ESE,113,5.0,9.0,80,0.00,CLR,,0.05,WeatherDisplay:10.37,2013-04-30 17:58:00,
2013-04-30 14:08:00,57.9,51.8,30.23,East,94,0.0,6.0,80,0.00,CLR,,0.05,WeatherDisplay:10.37,2013-04-30 18:08:00,
2013-04-30 14:18:00,57.9,51.8,30.23,ESE,123,2.0,8.0,80,0.00,CLR,,0.05,WeatherDisplay:10.37,2013-04-30 18:18:00,
2013-04-30 14:28:00,58.1,52.0,30.23,SE,144,1.0,6.0,80,0.00,CLR,,0.05,WeatherDisplay:10.37,2013-04-30 18:28:00,
2013-04-30 14:38:00,58.2,52.1,30.23,SE,127,0.0,6.0,80,0.00,CLR,,0.05,WeatherDisplay:10.37,2013-04-30 18:38:00,
2013-04-30 14:48:00,58.1,51.6,30.23,ESE,103,0.0,7.0,79,0.00,CLR,,0.05,WeatherDisplay:10.37,2013-04-30 18:48:00,
2013-04-30 14:58:00,58.3,51.8,30.26,East,101,0.0,6.0,79,0.00,CLR,,0.05,WeatherDisplay:10.37,2013-04-30 18:58:00,
2013-04-30 15:08:00,58.5,52.0,30.23,ESE,120,0.0,5.0,79,0.00,CLR,,0.05,WeatherDisplay:10.37,2013-04-30 19:08:00,
2013-04-30 15:18:00,58.5,52.0,30.23,East,91,0.0,6.0,79,0.00,CLR,,0.05,WeatherDisplay:10.37,2013-04-30 19:18:00,
2013-04-30 15:28:00,58.6,52.1,30.26,ESE,110,0.0,6.0,79,0.00,CLR,,0.05,WeatherDisplay:10.37,2013-04-30 19:28:00,
2013-04-30 15:38:00,59.0,52.5,30.23,ESE,116,2.0,5.0,79,0.00,CLR,,0.05,WeatherDisplay:10.37,2013-04-30 19:38:00,
2013-04-30 15:48:00,59.2,52.3,30.23,East,80,2.0,6.0,78,0.00,CLR,,0.05,WeatherDisplay:10.37,2013-04-30 19:48:00,
2013-04-30 15:58:00,59.0,51.8,30.26,ENE,77,2.0,6.0,77,0.00,CLR,,0.05,WeatherDisplay:10.37,2013-04-30 19:58:00,
2013-04-30 16:08:00,59.0,51.8,30.26,East,89,0.0,0.0,77,0.00,CLR,,0.05,WeatherDisplay:10.37,2013-04-30 20:08:00,
2013-04-30 16:18:00,59.3,51.7,30.26,SE,127,3.0,6.0,76,0.00,CLR,,0.05,WeatherDisplay:10.37,2013-04-30 20:18:00,
2013-04-30 16:28:00,59.4,51.8,30.26,ESE,110,5.0,6.0,76,0.00,CLR,,0.05,WeatherDisplay:10.37,2013-04-30 20:28:00,
2013-04-30 16:38:00,59.5,51.2,30.26,ESE,103,3.0,8.0,74,0.00,CLR,,0.05,WeatherDisplay:10.37,2013-04-30 20:38:00,
2013-04-30 16:48:00,59.1,50.1,30.26,ENE,70,3.0,8.0,72,0.00,CLR,,0.05,WeatherDisplay:10.37,2013-04-30 20:48:00,
2013-04-30 16:58:00,58.6,49.6,30.26,East,84,0.0,6.0,72,0.00,CLR,,0.05,WeatherDisplay:10.37,2013-04-30 20:58:00,
2013-04-30 17:08:00,58.5,49.9,30.26,ENE,78,1.0,4.0,73,0.00,CLR,,0.05,WeatherDisplay:10.37,2013-04-30 21:08:00,
2013-04-30 17:18:00,58.6,50.4,30.26,ESE,110,0.0,6.0,74,0.00,CLR,,0.05,WeatherDisplay:10.37,2013-04-30 21:18:00,
2013-04-30 17:28:00,59.0,50.7,30.26,SE,146,3.0,4.0,74,0.00,CLR,,0.05,WeatherDisplay:10.37,2013-04-30 21:28:00,
2013-04-30 17:38:00,58.8,50.5,30.26,East,95,0.0,6.0,74,0.00,CLR,,0.05,WeatherDisplay:10.37,2013-04-30 21:38:00,
2013-04-30 17:48:00,58.3,50.0,30.26,East,95,1.0,6.0,74,0.00,CLR,,0.05,WeatherDisplay:10.37,2013-04-30 21:48:00,
2013-04-30 17:58:00,58.1,50.6,30.26,East,97,6.0,9.0,76,0.00,CLR,,0.05,WeatherDisplay:10.37,2013-04-30 21:58:00,
2013-04-30 18:08:00,58.0,50.8,30.26,ESE,106,3.0,6.0,77,0.00,CLR,,0.05,WeatherDisplay:10.37,2013-04-30 22:08:00,
2013-04-30 18:18:00,57.7,50.9,30.26,ESE,114,6.0,8.0,78,0.00,CLR,,0.05,WeatherDisplay:10.37,2013-04-30 22:18:00,
2013-04-30 18:28:00,57.6,50.8,30.26,ESE,109,5.0,8.0,78,0.00,CLR,,0.05,WeatherDisplay:10.37,2013-04-30 22:28:00,
2013-04-30 18:38:00,57.4,50.9,30.29,ESE,110,3.0,6.0,79,0.00,CLR,,0.05,WeatherDisplay:10.37,2013-04-30 22:38:00,
2013-04-30 18:48:00,57.2,51.1,30.29,ESE,115,5.0,8.0,80,0.00,CLR,,0.05,WeatherDisplay:10.37,2013-04-30 22:48:00,
2013-04-30 18:58:00,57.2,51.4,30.29,ESE,107,0.0,6.0,81,0.10,RA,,0.15,WeatherDisplay:10.37,2013-04-30 22:58:00,
2013-04-30 19:08:00,57.3,51.5,30.29,East,99,5.0,8.0,81,0.00,CLR,,0.15,WeatherDisplay:10.37,2013-04-30 23:08:00,
2013-04-30 19:18:00,57.0,51.2,30.29,ENE,66,3.0,6.0,81,0.00,CLR,,0.15,WeatherDisplay:10.37,2013-04-30 23:18:00,
2013-04-30 19:28:00,57.0,51.2,30.29,East,85,3.0,7.0,81,0.00,CLR,,0.15,WeatherDisplay:10.37,2013-04-30 23:28:00,
2013-04-30 19:38:00,56.8,51.1,30.26,ESE,105,2.0,6.0,81,0.00,CLR,,0.15,WeatherDisplay:10.37,2013-04-30 23:38:00,
2013-04-30 19:48:00,56.7,50.6,30.26,ESE,119,3.0,6.0,80,0.00,CLR,,0.15,WeatherDisplay:10.37,2013-04-30 23:48:00,
2013-04-30 19:58:00,56.7,50.6,30.26,SE,125,2.0,6.0,80,0.00,CLR,,0.15,WeatherDisplay:10.37,2013-04-30 23:58:00,
2013-04-30 20:08:00,56.5,50.4,30.29,SE,128,2.0,6.0,80,0.00,CLR,,0.15,WeatherDisplay:10.37,2013-05-01 00:08:00,
2013-04-30 20:18:00,56.5,50.4,30.29,SE,135,2.0,5.0,80,0.00,CLR,,0.15,WeatherDisplay:10.37,2013-05-01 00:18:00,
2013-04-30 20:28:00,56.5,50.4,30.26,SSE,149,3.0,6.0,80,0.00,CLR,,0.15,WeatherDisplay:10.37,2013-05-01 00:28:00,
2013-04-30 20:38:00,56.5,50.7,30.29,SE,136,2.0,7.0,81,0.00,CLR,,0.15,WeatherDisplay:10.37,2013-05-01 00:38:00,
2013-04-30 20:48:00,56.5,50.7,30.29,SE,144,0.0,6.0,81,0.00,CLR,,0.15,WeatherDisplay:10.37,2013-05-01 00:48:00,
2013-04-30 20:58:00,56.3,50.5,30.29,SE,133,5.0,7.0,81,0.00,CLR,,0.15,WeatherDisplay:10.37,2013-05-01 00:58:00,
2013-04-30 21:08:00,56.5,50.7,30.29,SSE,148,3.0,8.0,81,0.00,CLR,,0.15,WeatherDisplay:10.37,2013-05-01 01:08:00,
2013-04-30 21:18:00,56.5,50.7,30.29,SE,134,5.0,8.0,81,0.00,CLR,,0.15,WeatherDisplay:10.37,2013-05-01 01:18:00,
2013-04-30 21:28:00,56.4,50.7,30.29,SSW,196,0.0,6.0,81,0.00,CLR,,0.15,WeatherDisplay:10.37,2013-05-01 01:28:00,
2013-04-30 21:38:00,56.3,50.5,30.29,SSW,198,1.0,4.0,81,0.00,CLR,,0.15,WeatherDisplay:10.37,2013-05-01 01:38:00,
2013-04-30 21:48:00,56.1,50.4,30.29,SSW,212,0.0,6.0,81,0.00,CLR,,0.15,WeatherDisplay:10.37,2013-05-01 01:48:00,
2013-04-30 21:58:00,56.1,50.4,30.29,South,173,0.0,0.0,81,0.00,CLR,,0.15,WeatherDisplay:10.37,2013-05-01 01:58:00,
2013-04-30 22:08:00,56.1,50.4,30.29,SSE,154,0.0,0.0,81,0.00,CLR,,0.15,WeatherDisplay:10.37,2013-05-01 02:08:00,
2013-04-30 22:18:00,56.1,50.4,30.29,NW,306,0.0,0.0,81,0.00,CLR,,0.15,WeatherDisplay:10.37,2013-05-01 02:18:00,
2013-04-30 22:28:00,56.1,50.0,30.32,NW,324,0.0,0.0,80,0.00,CLR,,0.15,WeatherDisplay:10.37,2013-05-01 02:28:00,
2013-04-30 22:38:00,56.1,50.4,30.32,SE,142,0.0,0.0,81,0.00,CLR,,0.15,WeatherDisplay:10.37,2013-05-01 02:38:00,
2013-04-30 22:48:00,56.1,50.0,30.32,SE,130,0.0,0.0,80,0.00,CLR,,0.15,WeatherDisplay:10.37,2013-05-01 02:48:00,
2013-04-30 22:58:00,56.1,50.0,30.32,SE,134,0.0,0.0,80,0.00,CLR,,0.15,WeatherDisplay:10.37,2013-05-01 02:58:00,
2013-04-30 23:08:00,56.1,50.0,30.32,SSE,160,0.0,0.0,80,0.00,CLR,,0.15,WeatherDisplay:10.37,2013-05-01 03:08:00,
2013-04-30 23:18:00,56.1,50.0,30.32,SSE,154,0.0,0.0,80,0.00,CLR,,0.15,WeatherDisplay:10.37,2013-05-01 03:18:00,
2013-04-30 23:28:00,55.9,49.8,30.32,SSE,154,0.0,0.0,80,0.00,CLR,,0.15,WeatherDisplay:10.37,2013-05-01 03:28:00,
2013-04-30 23:38:00,55.6,49.5,30.32,SSE,154,0.0,0.0,80,0.00,CLR,,0.15,WeatherDisplay:10.37,2013-05-01 03:38:00,
2013-04-30 23:48:00,55.2,49.2,30.32,SSE,154,0.0,0.0,80,0.00,CLR,,0.15,WeatherDisplay:10.37,2013-05-01 03:48:00,
2013-04-30 23:58:00,55.0,49.0,30.32,SSE,154,0.0,0.0,80,0.00,RA,,0.00,WeatherDisplay:10.37,2013-05-01 03:58:00,